Regional Weather Roundup
Issued by NWS Green Bay, WI

Home | Current Version | Previous Version | Graphics & Text | Print | Product List | Glossary Off
Versions: 1 2 3 4 5 6 7 8 9 10 11 12 13 14 15 16 17 18 19 20 21 22 23 24 25 26 27 28 29 30 31 32 33 34 35 36 37 38 39 40 41 42 43 44 45 46 47 48 49 50

000
ASUS43 KGRB 051900
RWRGRB

NORTH-CENTRAL AND NORTHEAST WISCONSIN REGIONAL WEATHER ROUNDUP
NATIONAL WEATHER SERVICE GREEN BAY WI
200 PM CDT THU MAY 05 2016

WIZ005-009-010>012-018-019-052000-
NORTH CENTRAL WISCONSIN

CITY           SKY/WX    TMP DP  RH WIND       PRES   REMARKS
IRONWOOD       SUNNY     66  34  30 W10       29.90F
MANITOWISH WTR NOT AVBL
ARBOR VITAE    NOT AVBL
EAGLE RIVER    NOT AVBL
LAND O LAKES   NOT AVBL
RHINELANDER    SUNNY     66  27  23 W7        29.97F
PHILLIPS       NOT AVBL
ANTIGO         NOT AVBL
TOMAHAWK       NOT AVBL
MERRILL        NOT AVBL
$$

WIZ013-073-052000-
NORTHEAST WISCONSIN

CITY           SKY/WX    TMP DP  RH WIND       PRES   REMARKS
IRON MOUNTAIN  SUNNY     65  25  22 N7        29.93F
MARINETTE      SUNNY     55  37  50 NE9       29.99F
$$

WIZ017-030-035>037-045-052000-
CENTRAL WISCONSIN

CITY           SKY/WX    TMP DP  RH WIND       PRES   REMARKS
MEDFORD        NOT AVBL
WAUSAU         SUNNY     64  31  28 W6        29.98F
MOSINEE        SUNNY     63  30  29 NW9       30.01F
MARSHFIELD     SUNNY     64  29  26 W7        30.00F
WISC RAPIDS    SUNNY     64  28  25 VRB3      30.01F
STEVENS POINT  NOT AVBL
WAUPACA        NOT AVBL
SHAWANO        NOT AVBL
CLINTONVILLE   NOT AVBL
WAUTOMA        NOT AVBL
$$

WIZ038-039-048-051-052000-
FOX VALLEY

CITY           SKY/WX    TMP DP  RH WIND       PRES   REMARKS
NWS GREEN BAY  SUNNY     61  37  41 VRB3      30.00F
APPLETON       SUNNY     57  34  41 NW6       29.99F
OSHKOSH        SUNNY     60  37  42 VRB7      30.00F
FOND DU LAC    SUNNY     60  41  49 NE6       30.00F
$$

WIZ022-050-052-052000-
EAST CENTRAL WISCONSIN

CITY           SKY/WX    TMP DP  RH WIND       PRES   REMARKS
EPHRAIM        NOT AVBL
STURGEON BAY   SUNNY     55  37  50 N6        30.02F
MANITOWOC      NOT AVBL
SHEBOYGAN      SUNNY     57  42  57 E6        30.00F
$$

LMZ563-521-522-541>543-052000-
LAKESHORE

STATION/POSITION TIME  TEMP    WIND        PRES    VSBY  WAVE
                       AIR SEA DIR/SP/G                  HT/PER
                 (UTC) (F)     (DEG/KT/KT) (MB)    (MI)  (FT/S)
SHEBOYGAN LKSHOR 1800   42      50/ 10/ 11 1017.4F
KEWAUNEE LKSHORE 1800   46                 1015.9F
ALGOMA MARINA    1815          130/  8/  9   N/A
NORTHPORT PIER   1800   45     330/  3/  4 1016.3F
N MID LAKE BUOY  1750   39 39  250/  4/  6 1016.6F         1
CHAMBERS ISLAND  1840   49      50/  4/  6 1015.9F
MENOMINEE LKSHOR 1800   45                 1014.9F
$$




USA.gov is the U.S. government's official web portal to all federal, state and local government web resources and services.